Fort Benning, AL

5:21 PM CDT on June 27, 2017 (GMT -0500)
Lawson Army Air Field

Weather History for KLSF - February, 2014

Change the Weather History Date:

Sunday, February 2, 2014

  Actual Average Record
Temperature  
Mean Temperature 62 °F -  
Max Temperature 77 °F 57 °F 77 °F (2014)
Min Temperature 48 °F 34 °F 22 °F (2013)
Degree Days  
Heating Degree Days 2    
Growing Degree Days 12 (Base 50)    
Moisture  
Dew Point 55 °F    
Average Humidity 94    
Maximum Humidity 100    
Minimum Humidity 59    
Precipitation  
Precipitation 0.00 in - - ()
Sea Level Pressure  
Sea Level Pressure 30.09 in    
Wind  
Wind Speed 6 mph (SSE)    
Max Wind Speed 14 mph    
Max Gust Speed 20 mph    
Visibility 4 miles    
Events Fog    
Averages and records for this station are not official NWS values.
T = Trace of Precipitation, MM = Missing Value Source: NWS Daily Summary

Daily Weather History Graph

Daily Weather History Graph

Search for Another Location

Airport or City:

Trip Planner

Search our weather history database for the weather conditions in past years. The results will help you decide how hot, cold, wet, or windy it might be!

Date:

Astronomy

Feb. 02, 2014 Rise Set
Actual Time 7:33 AM EST 6:14 PM EST
Civil Twilight 7:07 AM EST 6:40 PM EST
Nautical Twilight 6:38 AM EST 7:09 PM EST
Astronomical Twilight 6:09 AM EST 7:38 PM EST
Moon 9:13 AM EST (2/2) 9:41 PM EST (2/2)
Length of Visible Light 11h 32m
Length of Day
10h 40m
Waxing Crescent, 11% of the Moon is Illuminated
Feb 2
Waxing Crescent
Feb 6
First Quarter
Feb 14
Full
Feb 22
Last Quarter
Mar 1
New

Hourly Weather History & Observations

Time (EST) Temp. Dew Point Humidity Pressure Visibility Wind Dir Wind Speed Gust Speed Precip Events Conditions
12:43 AM 51.8 °F 51.8 °F 100% 30.14 in 0.5 mi SSE 2.3 mph - N/A Fog Fog
12:58 AM 51.1 °F 51.1 °F 100% 30.15 in 0.8 mi SE 5.8 mph - N/A   Mist
1:43 AM 50.0 °F 50.0 °F 100% 30.13 in 0.5 mi ESE 5.8 mph - N/A Fog Fog
1:48 AM 50.0 °F 50.0 °F 100% 30.14 in 0.8 mi SSE 4.6 mph - N/A   Mist
1:58 AM 50.2 °F 50.2 °F 100% 30.15 in 0.8 mi SE 4.6 mph - N/A   Mist
2:23 AM 50.0 °F 50.0 °F 100% 30.14 in 1.0 mi SE 5.8 mph - N/A   Mist
2:33 AM 50.0 °F 50.0 °F 100% 30.14 in 0.8 mi SE 4.6 mph - N/A   Mist
2:38 AM 50.0 °F 50.0 °F 100% 30.14 in 0.8 mi SE 4.6 mph - N/A   Mist
2:58 AM 49.6 °F 49.6 °F 100% 30.14 in 0.8 mi SE 4.6 mph - N/A   Mist
3:28 AM 50.0 °F 50.0 °F 100% 30.13 in 1.2 mi SSE 6.9 mph - N/A   Overcast
3:33 AM 50.0 °F 50.0 °F 100% 30.13 in 2.0 mi South 5.8 mph - N/A   Overcast
3:38 AM 50.0 °F 50.0 °F 100% 30.13 in 1.8 mi SE 5.8 mph - N/A   Overcast
3:43 AM 50.0 °F 50.0 °F 100% 30.13 in 1.2 mi SE 5.8 mph - N/A   Overcast
3:48 AM 48.2 °F 48.2 °F 100% 30.13 in 1.0 mi SE 6.9 mph - N/A   Mist
3:53 AM 48.2 °F 48.2 °F 100% 30.12 in 1.2 mi SE 8.1 mph - N/A   Overcast
3:58 AM 48.9 °F 48.9 °F 100% 30.13 in 1.2 mi SE 6.9 mph - N/A   Overcast
4:08 AM 48.2 °F 48.2 °F 100% 30.12 in 1.0 mi SE 5.8 mph - N/A   Mist
4:18 AM 48.2 °F 48.2 °F 100% 30.13 in 0.8 mi SE 6.9 mph - N/A   Mist
4:23 AM 48.2 °F 48.2 °F 100% 30.13 in 0.8 mi SSE 5.8 mph - N/A   Mist
4:28 AM 48.2 °F 48.2 °F 100% 30.12 in 1.0 mi SE 4.6 mph - N/A   Mist
4:38 AM 48.2 °F 48.2 °F 100% 30.12 in 0.8 mi SE 4.6 mph - N/A   Mist
4:48 AM 48.2 °F 48.2 °F 100% 30.12 in 0.8 mi SSE 4.6 mph - N/A   Mist
4:53 AM 48.2 °F 48.2 °F 100% 30.12 in 1.0 mi South 4.6 mph - N/A   Mist
4:58 AM 48.7 °F 48.7 °F 100% 30.13 in 1.0 mi SSE 5.8 mph - N/A   Mist
5:08 AM 48.2 °F 48.2 °F 100% 30.12 in 1.0 mi SE 3.5 mph - N/A   Mist
5:23 AM 48.2 °F 48.2 °F 100% 30.12 in 0.8 mi SE 3.5 mph - N/A   Mist
5:43 AM 48.2 °F 48.2 °F 100% 30.11 in 0.5 mi East 2.3 mph - N/A Fog Fog
5:58 AM 48.7 °F 48.7 °F 100% 30.12 in 0.5 mi Calm Calm - N/A Fog Fog
6:58 AM 48.7 °F 48.7 °F 100% 30.15 in 0.5 mi West 2.3 mph - N/A Fog Fog
7:33 AM 48.2 °F 48.2 °F 100% 30.15 in 0.2 mi NW 8.1 mph - N/A Fog Fog
7:58 AM 48.2 °F 48.2 °F 100% 30.17 in 0.2 mi Calm Calm - N/A Fog Fog
8:33 AM 50.0 °F 50.0 °F 100% 30.15 in 0.5 mi ESE 1.2 mph - N/A Fog Fog
8:38 AM 50.0 °F 50.0 °F 100% 30.14 in 0.5 mi ESE 2.3 mph - N/A Fog Fog
8:48 AM 50.0 °F 50.0 °F 100% 30.14 in 0.8 mi ESE 3.5 mph - N/A   Mist
8:58 AM 50.5 °F 50.5 °F 100% 30.15 in 0.8 mi SE 4.6 mph - N/A   Mist
9:18 AM 51.8 °F 51.8 °F 100% 30.13 in 0.5 mi ESE 3.5 mph - N/A Fog Fog
9:28 AM 51.8 °F 51.8 °F 100% 30.13 in 0.8 mi SSE 4.6 mph - N/A   Mist
9:38 AM 53.6 °F 53.6 °F 100% 30.13 in 0.8 mi SSE 5.8 mph - N/A   Mist
9:43 AM 53.6 °F 53.6 °F 100% 30.13 in 1.2 mi SSE 6.9 mph - N/A   Overcast
9:48 AM 53.6 °F 53.6 °F 100% 30.13 in 1.8 mi SSE 5.8 mph - N/A   Overcast
9:53 AM 53.6 °F 53.6 °F 100% 30.13 in 3.0 mi SSE 5.8 mph - N/A   Overcast
9:58 AM 53.8 °F 53.8 °F 100% 30.14 in 4.0 mi South 6.9 mph - N/A   Overcast
10:58 AM 57.6 °F 57.6 °F 100% 30.14 in 10.0 mi South 10.4 mph - N/A   Overcast
11:03 AM 59.0 °F 59.0 °F 100% 30.12 in 10.0 mi SSE 8.1 mph - N/A   Overcast
11:08 AM 59.0 °F 59.0 °F 100% 30.12 in 10.0 mi Variable 4.6 mph - N/A   Overcast
11:09 AM 59.0 °F 59.0 °F 100% 30.12 in 10.0 mi Variable 4.6 mph - N/A   Overcast
11:58 AM 63.9 °F 63.9 °F 100% 30.12 in 10.0 mi Variable 3.5 mph - N/A   Overcast
12:58 PM 69.6 °F 61.9 °F 76% 30.08 in 10.0 mi South 11.5 mph - N/A   Overcast
1:58 PM 72.1 °F 60.6 °F 67% 30.05 in 10.0 mi South 9.2 mph - N/A   Mostly Cloudy
2:58 PM 75.6 °F 61.2 °F 61% 30.02 in 10.0 mi South 9.2 mph - N/A   Overcast
3:58 PM 77.2 °F 61.9 °F 59% 30.00 in 10.0 mi South 12.7 mph - N/A   Partly Cloudy
4:13 PM 75.2 °F 62.6 °F 65% 29.99 in 10.0 mi South 11.5 mph - N/A   Mostly Cloudy
4:38 PM 75.2 °F 62.6 °F 65% 29.99 in 10.0 mi SSE 13.8 mph - N/A   Mostly Cloudy
4:43 PM 75.2 °F 62.6 °F 65% 29.98 in 10.0 mi South 10.4 mph - N/A   Mostly Cloudy
4:58 PM 75.6 °F 62.2 °F 63% 30.00 in 10.0 mi SSE 12.7 mph - N/A   Scattered Clouds
5:38 PM 73.4 °F 62.6 °F 69% 29.99 in 10.0 mi South 8.1 mph - N/A   Mostly Cloudy
5:58 PM 72.7 °F 62.1 °F 69% 30.00 in 10.0 mi SSE 9.2 mph - N/A   Overcast
6:58 PM 69.8 °F 62.2 °F 77% 30.02 in 10.0 mi SSE 6.9 mph - N/A   Overcast
7:28 PM 69.8 °F 62.6 °F 78% 30.00 in 10.0 mi South 6.9 mph - N/A   Overcast
7:53 PM 69.8 °F 62.6 °F 78% 29.99 in 10.0 mi South 6.9 mph - N/A   Overcast
7:58 PM 69.1 °F 62.8 °F 80% 30.00 in 10.0 mi SSE 8.1 mph - N/A   Overcast
8:58 PM 68.0 °F 64.6 °F 89% 29.99 in 10.0 mi South 12.7 mph - N/A   Partly Cloudy
9:58 PM 66.7 °F 65.7 °F 96% 29.99 in 10.0 mi South 11.5 mph - N/A   Clear
10:18 PM 66.2 °F 66.2 °F 100% 29.99 in 10.0 mi South 12.7 mph - N/A   Mostly Cloudy
10:58 PM 67.1 °F 65.8 °F 96% 30.00 in 10.0 mi South 12.7 mph - N/A   Mostly Cloudy
11:28 PM 66.2 °F 66.2 °F 100% 29.98 in 10.0 mi South 12.7 mph - N/A   Mostly Cloudy
11:43 PM 66.2 °F 66.2 °F 100% 29.98 in 10.0 mi South 10.4 mph - N/A   Mostly Cloudy
11:48 PM 66.2 °F 66.2 °F 100% 29.98 in 10.0 mi South 10.4 mph - N/A   Mostly Cloudy
11:58 PM 66.0 °F 65.7 °F 99% 29.99 in 10.0 mi South 11.5 mph 19.6 mph N/A   Mostly Cloudy